Terminal Aerodrome Forecast
Issued by NWS

Home | Current Version | Previous Version | Text Only | Print | Product List | Glossary On
Versions: 1 2 3 4 5 6 7 8 9 10 11 12 13 14 15 16 17
000
FTUS43 KMQT 221700
TAFSAW
TAF
KSAW 221724Z 2218/2318 28009KT P6SM SCT035
     FM230000 25005KT P6SM SKC
     FM231400 VRB03KT P6SM SKC
      AMD LTD TO CLD VIS AND WIND 2302/2310=

USA.gov is the U.S. government's official web portal to all federal, state and local government web resources and services.